Weather History for KRYW - March, 2013

Change the Weather History Date:

Sunday, March 3, 2013

  Actual Average (KATT) Record (KATT)
Temperature  
Mean Temperature 58 °F 58 °F  
Max Temperature 73 °F 69 °F 89 °F (1901)
Min Temperature 42 °F 48 °F 18 °F (1943)
Degree Days  
Heating Degree Days 8 8  
Month to date heating degree days 24  
Since 1 July heating degree days 1361  
Cooling Degree Days 0 1  
Month to date cooling degree days 3  
Year to date cooling degree days 30  
Growing Degree Days 8 (Base 50)    
Moisture  
Dew Point 29 °F    
Average Humidity 35    
Maximum Humidity 51    
Minimum Humidity 18    
Precipitation  
Precipitation 0.00 in 0.09 in 1.53 in (1981)
Month to date precipitation 0.25  
Year to date precipitation 4.49  
Snow  
Snow 0.00 in - - ()
Month to date snowfall  
Since 1 July snowfall  
Snow Depth -    
Sea Level Pressure  
Sea Level Pressure 30.10 in    
Wind  
Wind Speed 9 mph (South)    
Max Wind Speed 18 mph    
Max Gust Speed 29 mph    
Visibility 10 miles    
Events      
T = Trace of Precipitation, MM = Missing Value Source: NWS Daily Summary

Daily Weather History Graph

Daily Weather History Graph

Search for Another Location

Airport or City:

Trip Planner

Search our weather history database for the weather conditions in past years. The results will help you decide how hot, cold, wet, or windy it might be!

Date:

Astronomy

Mar. 03, 2013 Rise Set
Actual Time 6:55 AM CST 6:32 PM CST
Civil Twilight 6:31 AM CST 6:56 PM CST
Nautical Twilight 6:03 AM CST 7:24 PM CST
Astronomical Twilight 5:35 AM CST 7:52 PM CST
Moon No Moon Rise 10:39 AM CST (3/3)
Length of Visible Light 12h 24m
Length of Day
11h 36m
Waning Gibbous, 63% of the Moon is Illuminated
Mar 3
Waning Gibbous
Mar 4
Last Quarter
Mar 11
New
Mar 19
First Quarter
Mar 27
Full

Hourly Weather History & Observations

Time (CST) Temp. Windchill Dew Point Humidity Pressure Visibility Wind Dir Wind Speed Gust Speed Precip Events Conditions
12:15 AM 44.6 °F 43.1 °F 24.8 °F 46% 30.25 in 10.0 mi ESE 3.5 mph - N/A   Clear
12:35 AM 44.6 °F 43.1 °F 24.8 °F 46% 30.25 in 10.0 mi SE 3.5 mph - N/A   Clear
12:55 AM 44.6 °F 42.2 °F 24.8 °F 46% 30.25 in 10.0 mi SSE 4.6 mph - N/A   Clear
1:15 AM 44.6 °F 42.2 °F 24.8 °F 46% 30.25 in 10.0 mi SSE 4.6 mph - N/A   Clear
1:35 AM 44.6 °F 43.1 °F 23.0 °F 43% 30.25 in 10.0 mi SSE 3.5 mph - N/A   Clear
1:55 AM 44.6 °F 42.2 °F 23.0 °F 43% 30.25 in 10.0 mi SSE 4.6 mph - N/A   Clear
2:15 AM 44.6 °F 41.4 °F 23.0 °F 43% 30.24 in 10.0 mi SSE 5.8 mph - N/A   Clear
2:35 AM 44.6 °F 41.4 °F 23.0 °F 43% 30.23 in 10.0 mi South 5.8 mph - N/A   Clear
3:15 AM 44.6 °F 40.2 °F 24.8 °F 46% 30.22 in 10.0 mi South 8.1 mph - N/A   Clear
3:35 AM 44.6 °F 39.7 °F 23.0 °F 43% 30.22 in 10.0 mi South 9.2 mph - N/A   Clear
3:55 AM 44.6 °F 39.7 °F 23.0 °F 43% 30.21 in 10.0 mi South 9.2 mph - N/A   Clear
4:15 AM 44.6 °F 40.2 °F 23.0 °F 43% 30.21 in 10.0 mi South 8.1 mph - N/A   Clear
4:35 AM 42.8 °F 38.6 °F 23.0 °F 46% 30.20 in 10.0 mi South 6.9 mph - N/A   Clear
4:55 AM 42.8 °F 38.6 °F 23.0 °F 46% 30.20 in 10.0 mi South 6.9 mph - N/A   Clear
5:15 AM 42.8 °F 38.0 °F 23.0 °F 46% 30.20 in 10.0 mi South 8.1 mph - N/A   Clear
5:35 AM 42.8 °F 37.5 °F 23.0 °F 46% 30.21 in 10.0 mi South 9.2 mph - N/A   Clear
6:15 AM 44.6 °F 41.4 °F 23.0 °F 43% 30.20 in 10.0 mi South 5.8 mph - N/A   Clear
6:35 AM 44.6 °F 39.7 °F 23.0 °F 43% 30.20 in 10.0 mi South 9.2 mph - N/A   Clear
6:55 AM 44.6 °F 39.7 °F 23.0 °F 43% 30.20 in 10.0 mi South 9.2 mph - N/A   Clear
7:15 AM 44.6 °F 40.2 °F 23.0 °F 43% 30.20 in 10.0 mi South 8.1 mph - N/A   Clear
7:35 AM 44.6 °F 39.7 °F 23.0 °F 43% 30.21 in 10.0 mi South 9.2 mph - N/A   Clear
8:15 AM 46.4 °F 41.1 °F 23.0 °F 40% 30.21 in 10.0 mi South 11.5 mph - N/A   Clear
8:35 AM 48.2 °F - 24.8 °F 40% 30.21 in 10.0 mi South 8.1 mph - N/A   Clear
8:55 AM 50.0 °F - 26.6 °F 40% 30.21 in 10.0 mi South 9.2 mph - N/A   Clear
9:15 AM 51.8 °F - 26.6 °F 38% 30.22 in 10.0 mi South 10.4 mph - N/A   Clear
9:35 AM 53.6 °F - 26.6 °F 35% 30.21 in 10.0 mi SSW 9.2 mph - N/A   Clear
9:55 AM 57.2 °F - 28.4 °F 33% 30.20 in 10.0 mi SSW 12.7 mph 19.6 mph N/A   Clear
10:15 AM 59.0 °F - 30.2 °F 34% 30.19 in 10.0 mi SSW 10.4 mph 20.7 mph N/A   Clear
10:35 AM 60.8 °F - 30.2 °F 31% 30.18 in 10.0 mi SSW 13.8 mph 20.7 mph N/A   Clear
10:55 AM 60.8 °F - 30.2 °F 31% 30.18 in 10.0 mi South 11.5 mph 18.4 mph N/A   Clear
11:15 AM 62.6 °F - 30.2 °F 30% 30.16 in 10.0 mi South 11.5 mph 18.4 mph N/A   Clear
11:35 AM 64.4 °F - 30.2 °F 28% 30.15 in 10.0 mi SSW 16.1 mph 20.7 mph N/A   Clear
11:55 AM 66.2 °F - 30.2 °F 26% 30.14 in 10.0 mi South 11.5 mph 18.4 mph N/A   Clear
12:15 PM 68.0 °F - 30.2 °F 24% 30.13 in 10.0 mi South 9.2 mph 20.7 mph N/A   Clear
12:35 PM 69.8 °F - 30.2 °F 23% 30.11 in 10.0 mi South 15.0 mph 21.9 mph N/A   Clear
12:55 PM 69.8 °F - 30.2 °F 23% 30.10 in 10.0 mi South 16.1 mph 21.9 mph N/A   Clear
1:15 PM 69.8 °F - 28.4 °F 21% 30.09 in 10.0 mi SSW 15.0 mph 24.2 mph N/A   Clear
1:35 PM 71.6 °F - 28.4 °F 20% 30.07 in 10.0 mi SSW 11.5 mph 24.2 mph N/A   Clear
2:15 PM 71.6 °F - 26.6 °F 19% 30.05 in 10.0 mi SSW 15.0 mph 26.5 mph N/A   Clear
2:35 PM 71.6 °F - 26.6 °F 19% 30.03 in 10.0 mi SSW 17.3 mph 25.3 mph N/A   Clear
2:55 PM 73.4 °F - 28.4 °F 19% 30.02 in 10.0 mi South 16.1 mph 27.6 mph N/A   Clear
3:15 PM 73.4 °F - 28.4 °F 19% 30.01 in 10.0 mi South 18.4 mph 28.8 mph N/A   Clear
3:35 PM 73.4 °F - 26.6 °F 18% 30.01 in 10.0 mi SSW 17.3 mph 24.2 mph N/A   Clear
3:55 PM 73.4 °F - 28.4 °F 19% 30.00 in 10.0 mi SSW 16.1 mph 26.5 mph N/A   Clear
4:15 PM 73.4 °F - 28.4 °F 19% 29.99 in 10.0 mi SSW 15.0 mph 26.5 mph N/A   Clear
4:35 PM 73.4 °F - 30.2 °F 20% 29.98 in 10.0 mi South 18.4 mph 26.5 mph N/A   Clear
4:55 PM 71.6 °F - 30.2 °F 22% 29.98 in 10.0 mi SSW 16.1 mph 25.3 mph N/A   Clear
5:15 PM 71.6 °F - 30.2 °F 22% 29.97 in 10.0 mi South 12.7 mph 24.2 mph N/A   Clear
5:35 PM 71.6 °F - 30.2 °F 22% 29.96 in 10.0 mi South 13.8 mph 23.0 mph N/A   Clear
5:55 PM 71.6 °F - 30.2 °F 22% 29.96 in 10.0 mi South 12.7 mph 21.9 mph N/A   Clear
6:15 PM 69.8 °F - 30.2 °F 23% 29.96 in 10.0 mi South 11.5 mph 17.3 mph N/A   Clear
6:35 PM 69.8 °F - 32.0 °F 25% 29.96 in 10.0 mi South 12.7 mph 20.7 mph N/A   Clear
6:55 PM 68.0 °F - 30.2 °F 24% 29.95 in 10.0 mi South 13.8 mph 19.6 mph N/A   Clear
7:35 PM 66.2 °F - 30.2 °F 26% 29.94 in 10.0 mi South 11.5 mph 19.6 mph N/A   Clear
8:15 PM 66.2 °F - 30.2 °F 26% 29.94 in 10.0 mi South 12.7 mph 21.9 mph N/A   Clear
8:35 PM 64.4 °F - 30.2 °F 28% 29.95 in 10.0 mi SSE 12.7 mph 18.4 mph N/A   Clear
8:55 PM 62.6 °F - 35.6 °F 37% 29.95 in 10.0 mi South 13.8 mph 21.9 mph N/A   Clear
9:15 PM 62.6 °F - 37.4 °F 39% 29.95 in 10.0 mi South 12.7 mph 24.2 mph N/A   Clear
9:35 PM 60.8 °F - 41.0 °F 48% 29.95 in 10.0 mi SSE 12.7 mph 24.2 mph N/A   Clear
9:55 PM 60.8 °F - 41.0 °F 48% 29.94 in 10.0 mi South 16.1 mph 26.5 mph N/A   Clear
10:15 PM 60.8 °F - 39.2 °F 45% 29.95 in 10.0 mi South 13.8 mph 27.6 mph N/A   Clear
10:35 PM 59.0 °F - 39.2 °F 48% 29.94 in 10.0 mi South 10.4 mph 25.3 mph N/A   Clear
10:55 PM 59.0 °F - 39.2 °F 48% 29.95 in 10.0 mi South 10.4 mph 25.3 mph N/A   Clear
11:15 PM 59.0 °F - 39.2 °F 48% 29.93 in 10.0 mi South 16.1 mph 24.2 mph N/A   Clear
11:35 PM 59.0 °F - 39.2 °F 48% 29.93 in 10.0 mi South 16.1 mph 23.0 mph N/A   Clear
11:55 PM 57.2 °F - 39.2 °F 51% 29.92 in 10.0 mi South 11.5 mph 21.9 mph N/A   Clear